TimeEDT,TemperatureF,Dew PointF,Humidity,Sea Level PressureIn,VisibilityMPH,Wind Direction,Wind SpeedMPH,Gust SpeedMPH,PrecipitationIn,Events,Conditions,WindDirDegrees,DateUTC
12:56 AM,69.1,64.0,84,29.96,10.0,SW,3.5,-,N/A,,Clear,230,2012-10-07 04:56:00
1:56 AM,68.0,64.0,87,29.96,10.0,SW,4.6,-,N/A,,Clear,220,2012-10-07 05:56:00
2:56 AM,66.0,64.0,93,29.96,9.0,WSW,3.5,-,N/A,,Partly Cloudy,250,2012-10-07 06:56:00
3:56 AM,66.9,64.0,90,29.97,7.0,NNW,3.5,-,N/A,,Clear,340,2012-10-07 07:56:00
4:56 AM,64.9,63.0,93,29.96,4.0,Calm,Calm,-,N/A,,Clear,0,2012-10-07 08:56:00
5:16 AM,64.4,62.6,94,29.95,2.5,Calm,Calm,-,N/A,,Clear,0,2012-10-07 09:16:00
5:44 AM,64.4,62.6,94,29.96,3.0,Calm,Calm,-,N/A,,Clear,0,2012-10-07 09:44:00
5:56 AM,64.0,62.1,93,29.97,4.0,Calm,Calm,-,N/A,,Clear,0,2012-10-07 09:56:00
6:24 AM,64.4,62.6,94,29.96,6.0,Calm,Calm,-,N/A,,Mostly Cloudy,0,2012-10-07 10:24:00
6:49 AM,64.4,62.6,94,29.97,6.0,North,3.5,-,N/A,,Scattered Clouds,350,2012-10-07 10:49:00
7:03 AM,66.2,64.4,94,29.97,4.0,North,3.5,-,N/A,,Mostly Cloudy,350,2012-10-07 11:03:00
7:16 AM,66.2,64.4,94,29.97,2.5,NNE,3.5,-,N/A,,Overcast,20,2012-10-07 11:16:00
7:37 AM,66.2,64.4,94,29.97,1.5,NNE,5.8,-,N/A,,Overcast,20,2012-10-07 11:37:00
7:56 AM,66.0,64.0,93,29.99,2.0,North,5.8,-,N/A,,Overcast,10,2012-10-07 11:56:00
8:08 AM,66.2,64.4,94,29.98,1.8,North,4.6,-,N/A,,Overcast,360,2012-10-07 12:08:00
8:56 AM,66.9,64.9,93,30.01,1.8,NNE,5.8,-,N/A,,Overcast,20,2012-10-07 12:56:00
9:17 AM,68.0,66.2,94,30.01,2.0,ENE,4.6,-,N/A,,Overcast,60,2012-10-07 13:17:00
9:28 AM,68.0,64.4,88,30.02,3.0,NNE,4.6,-,N/A,,Overcast,30,2012-10-07 13:28:00
9:56 AM,69.1,64.9,87,30.03,5.0,Calm,Calm,-,N/A,,Overcast,0,2012-10-07 13:56:00
10:56 AM,72.0,66.0,81,30.03,7.0,NE,3.5,-,N/A,,Overcast,40,2012-10-07 14:56:00
11:16 AM,73.4,66.2,78,30.01,8.0,ENE,3.5,-,N/A,,Mostly Cloudy,70,2012-10-07 15:16:00
11:29 AM,73.4,66.2,78,30.01,8.0,ENE,4.6,-,N/A,,Scattered Clouds,60,2012-10-07 15:29:00
11:56 AM,75.0,66.9,76,30.01,8.0,East,3.5,-,N/A,,Clear,80,2012-10-07 15:56:00
12:22 PM,75.2,66.2,73,30.00,9.0,Calm,Calm,-,N/A,,Mostly Cloudy,0,2012-10-07 16:22:00
12:56 PM,73.0,63.0,71,30.00,10.0,North,4.6,-,N/A,,Mostly Cloudy,360,2012-10-07 16:56:00
1:06 PM,73.4,62.6,69,29.99,10.0,NNW,9.2,-,N/A,,Scattered Clouds,340,2012-10-07 17:06:00
1:56 PM,77.0,64.0,64,29.99,10.0,ENE,5.8,-,N/A,,Clear,60,2012-10-07 17:56:00
2:56 PM,79.0,64.9,62,29.97,10.0,East,6.9,-,N/A,,Clear,80,2012-10-07 18:56:00
3:56 PM,80.1,66.0,62,29.96,10.0,Variable,3.5,-,N/A,,Partly Cloudy,0,2012-10-07 19:56:00
4:56 PM,80.1,66.9,64,29.96,10.0,SE,6.9,-,N/A,Thunderstorm,Thunderstorm,140,2012-10-07 20:56:00
5:29 PM,75.2,69.8,83,29.96,2.0,SW,15.0,-,0.04,Rain-Thunderstorm,Light Thunderstorms and Rain,230,2012-10-07 21:29:00
5:32 PM,71.6,68.0,88,29.98,0.8,WSW,23.0,28.8,0.13,Rain-Thunderstorm,Heavy Thunderstorms and Rain,240,2012-10-07 21:32:00
5:34 PM,71.6,66.2,83,29.99,0.5,SW,17.3,28.8,0.31,Fog-Rain-Thunderstorm,Heavy Thunderstorms and Rain,220,2012-10-07 21:34:00
5:41 PM,69.8,66.2,88,29.97,0.2,SSE,5.8,28.8,0.54,Fog-Rain-Thunderstorm,Heavy Thunderstorms and Rain,150,2012-10-07 21:41:00
5:45 PM,69.8,66.2,88,29.98,0.5,SSE,4.6,-,0.55,Fog-Rain-Thunderstorm,Light Thunderstorms and Rain,150,2012-10-07 21:45:00
5:47 PM,69.8,66.2,88,29.98,1.2,SSE,3.5,-,0.55,Rain-Thunderstorm,Light Thunderstorms and Rain,150,2012-10-07 21:47:00
5:50 PM,71.6,68.0,88,29.97,4.0,Calm,Calm,-,0.55,Rain-Thunderstorm,Light Thunderstorms and Rain,0,2012-10-07 21:50:00
5:56 PM,71.1,68.0,90,29.99,7.0,Calm,Calm,-,0.55,Thunderstorm,Thunderstorm,0,2012-10-07 21:56:00
6:05 PM,71.6,68.0,88,29.99,1.8,NW,5.8,-,0.06,Rain-Thunderstorm,Heavy Thunderstorms and Rain,310,2012-10-07 22:05:00
6:19 PM,71.6,68.0,88,29.98,1.2,North,5.8,-,0.16,Rain-Thunderstorm,Light Thunderstorms and Rain,350,2012-10-07 22:19:00
6:23 PM,71.6,68.0,88,29.98,3.0,North,8.1,-,0.16,Rain-Thunderstorm,Light Thunderstorms and Rain,360,2012-10-07 22:23:00
6:56 PM,72.0,68.0,87,30.02,10.0,Calm,Calm,-,0.16,Thunderstorm,Thunderstorm,0,2012-10-07 22:56:00
7:56 PM,66.9,60.1,79,30.05,10.0,NNW,10.4,-,N/A,Thunderstorm,Thunderstorm,340,2012-10-07 23:56:00
8:11 PM,66.2,60.8,83,30.05,10.0,North,13.8,-,N/A,,Scattered Clouds,360,2012-10-08 00:11:00
8:56 PM,62.1,55.9,80,30.08,10.0,North,12.7,21.9,N/A,,Scattered Clouds,350,2012-10-08 00:56:00
9:56 PM,60.1,55.0,83,30.11,10.0,North,13.8,21.9,N/A,,Mostly Cloudy,350,2012-10-08 01:56:00
10:56 PM,59.0,54.0,83,30.12,10.0,North,16.1,-,N/A,,Overcast,360,2012-10-08 02:56:00
11:19 PM,57.2,53.6,88,30.10,10.0,North,11.5,-,N/A,,Overcast,360,2012-10-08 03:19:00
11:56 PM,57.0,53.1,87,30.10,10.0,North,10.4,-,N/A,,Mostly Cloudy,350,2012-10-08 03:56:00